Hourly Data Report for December 04, 2017

VICTORIA UNIVERSITY CS
BRITISH COLUMBIA

48°27'25.200" N
123°18'16.600" W
60.10 m
1018598
71783
WYJ

Download Data

Hourly Data (December 2017)
Hourly Data Report for December 4, 2017
TIME
LST
Temp Definition
°C
Dew Point Definition
°C
Rel Hum Definition
%
Precip. Amount Definition
mm

Wind Dir Definition
10's deg

Wind Spd Definition
km/h
Visibility Definition
km
Stn Press Definition
kPa
Hmdx Definition


Wind Chill Definition


Weather Definition


00:00 0.6 -0.9 90 0.0 29 3   102.39     LegendNANA
01:00 -0.1 -1.1 93 0.0   0   102.44     LegendNANA
02:00 0.1 -0.7 95 0.0   0   102.51     LegendNANA
03:00 0.0 -0.6 96 0.0 33 4   102.57   -1 LegendNANA
04:00 0.0 -0.4 97 0.0 32 4   102.59   -1 LegendNANA
05:00 -0.1 -0.5 97 0.0 32 3   102.61   -1 LegendNANA
06:00 -0.1 -0.6 96 0.0 32 3   102.66   -1 LegendNANA
07:00 2.1 0.4 88 0.0 34 6   102.69     LegendNANA
08:00 2.4 0.1 85 0.0 33 5   102.74     LegendNANA
09:00 3.5 0.8 82 0.0 1 3   102.80     LegendNANA
10:00 4.4 1.7 83 0.0 36 5   102.84     LegendNANA
11:00 6.1 2.8 79 0.0 3 4   102.82     LegendNANA
12:00 5.7 1.5 74 0.0 35 2   102.83     LegendNANA
13:00 5.4 2.0 79 0.0 36 5   102.82     LegendNANA
14:00 5.6 2.0 78 0.0 2 4   102.81     LegendNANA
15:00 5.5 1.8 77 0.0 3 4   102.82     LegendNANA
16:00 5.2 1.7 78 0.0 0 1   102.82     LegendNANA
17:00 3.7 1.6 86 0.0 34 2   102.82     LegendNANA
18:00 1.8 0.8 93 0.0 32 1   102.83     LegendNANA
19:00 2.4 1.7 95 0.0 33 6   102.81     LegendNANA
20:00 3.4 2.0 90 0.0 33 5   102.83     LegendNANA
21:00 3.4 2.1 91 0.0 32 3   102.86     LegendNANA
22:00 2.6 1.5 92 0.0 32 4   102.88     LegendNANA
23:00 2.3 1.4 94 0.0 30 3   102.89     LegendNANA

Notes on Data Quality.

Legend

  • E = Estimated
  • M = Missing
  • NA = Not Available*
  • [empty] = Indicates an unobserved value
Date modified: